Location: Newark
(54.6833°N, 25.2833°E)
Time: 20:32:13
(UTC+00:00)

Tiros 1 despin weight - Pass Details

Date: 23 November 2019
Orbit: 594 x 642 km, 48.2° (Epoch: 14 December)

Event Time Altitude Azimuth Distance (km) Brightness Sun altitude
Rises 10:21:11 0° 216° (SW) 2,821 ? 14.9°
Reaches altitude 10° 10:23:58 10° 199° (SSW) 1,922 ? 14.9°
Maximum altitude 10:27:06 19° 153° (SSE) 1,413 ? 14.8°
Drops below altitude 10° 10:30:16 10° 107° (ESE) 1,932 ? 14.8°
Sets 10:33:04 0° 90° (E) 2,842 ? 14.8°
